BEIDOU-3 M23 (C45)

Last updated on Oct. 23, 2020, 5:57 a.m. UTC

1 44542U 19061A   20296.46993895 -.00000001  00000-0  10000-3 0  9994
2 44542  54.8134 252.6343 0009579 313.6171 225.9925  1.86231592  7359
UTC
Height (km)
Latitude
Longitude
Inclination
Orbital Period
UTC large
Height (km)
Speed (km/s)
/
Latitude / Longitude
Inclination (degrees)
Orbital Period (minutes)
Azimuth
Elevation
Range (km)
Doppler Factor
iOS Compass Heading
iOS Angle

Next 30 passes for location: Hong Kong

Rise time Rise Azimuth (degrees) Set time Set Azimuth (degrees) Duration Max altitude (degrees)

No matching passes for this satellites